TimeCST,TemperatureF,Dew PointF,Humidity,Sea Level PressureIn,VisibilityMPH,Wind Direction,Wind SpeedMPH,Gust SpeedMPH,PrecipitationIn,Events,Conditions,WindDirDegrees,DateUTC
12:20 AM,64.4,64.4,100,30.02,10.0,SSE,6.9,-,N/A,,Mostly Cloudy,150,2012-11-10 06:20:00
12:30 AM,66.2,66.2,100,30.02,10.0,SSE,8.1,-,N/A,,Mostly Cloudy,150,2012-11-10 06:30:00
12:55 AM,65.8,65.5,99,30.02,10.0,SSE,6.9,-,N/A,,Mostly Cloudy,150,2012-11-10 06:55:00
1:09 AM,66.2,66.2,100,30.02,10.0,SSE,6.9,-,N/A,,Scattered Clouds,160,2012-11-10 07:09:00
1:20 AM,66.2,66.2,100,30.02,10.0,SSE,5.8,-,N/A,,Mostly Cloudy,160,2012-11-10 07:20:00
1:22 AM,66.2,66.2,100,30.02,10.0,SSE,6.9,-,N/A,,Scattered Clouds,160,2012-11-10 07:22:00
1:55 AM,64.6,64.4,99,30.01,10.0,SSE,6.9,-,N/A,,Clear,150,2012-11-10 07:55:00
2:55 AM,64.2,63.9,99,29.98,10.0,SE,6.9,-,N/A,,Partly Cloudy,140,2012-11-10 08:55:00
3:55 AM,62.6,62.6,100,29.99,10.0,South,3.5,-,N/A,,Partly Cloudy,170,2012-11-10 09:55:00
4:55 AM,61.5,61.5,100,29.99,10.0,South,3.5,-,N/A,,Scattered Clouds,170,2012-11-10 10:55:00
5:04 AM,62.6,62.6,100,29.99,10.0,South,4.6,-,N/A,,Mostly Cloudy,170,2012-11-10 11:04:00
5:05 AM,62.6,62.6,100,29.99,10.0,South,4.6,-,N/A,,Mostly Cloudy,170,2012-11-10 11:05:00
5:20 AM,62.6,62.6,100,29.99,10.0,South,4.6,-,N/A,,Mostly Cloudy,170,2012-11-10 11:20:00
5:22 AM,62.6,62.6,100,29.99,10.0,SSE,4.6,-,N/A,,Mostly Cloudy,160,2012-11-10 11:22:00
5:31 AM,62.6,62.6,100,29.99,10.0,SSE,3.5,-,N/A,,Scattered Clouds,150,2012-11-10 11:31:00
5:55 AM,62.2,62.2,100,29.99,10.0,SE,3.5,-,N/A,,Partly Cloudy,140,2012-11-10 11:55:00
6:53 AM,60.8,60.8,100,30.00,3.0,SE,3.5,-,N/A,,Partly Cloudy,140,2012-11-10 12:53:00
6:54 AM,60.8,60.8,100,30.00,2.5,SE,3.5,-,N/A,,Partly Cloudy,140,2012-11-10 12:54:00
6:55 AM,60.8,60.8,100,30.00,2.0,SE,3.5,-,N/A,,Partly Cloudy,140,2012-11-10 12:55:00
6:57 AM,60.8,60.8,100,29.99,1.8,SE,3.5,-,N/A,,Partly Cloudy,140,2012-11-10 12:57:00
6:58 AM,60.8,60.8,100,29.99,1.2,SE,3.5,-,N/A,,Partly Cloudy,140,2012-11-10 12:58:00
6:59 AM,60.8,60.8,100,29.99,1.0,SE,3.5,-,N/A,,Partly Cloudy,140,2012-11-10 12:59:00
7:03 AM,60.8,60.8,100,30.00,0.8,Calm,Calm,-,N/A,,Clear,0,2012-11-10 13:03:00
7:10 AM,60.8,60.8,100,30.00,1.0,SSE,3.5,-,N/A,,Clear,150,2012-11-10 13:10:00
7:11 AM,60.8,60.8,100,30.00,0.8,SSE,3.5,-,N/A,,Clear,150,2012-11-10 13:11:00
7:12 AM,60.8,60.8,100,30.00,1.0,SSE,3.5,-,N/A,,Clear,150,2012-11-10 13:12:00
7:14 AM,60.8,60.8,100,30.00,1.2,SSE,3.5,-,N/A,,Clear,150,2012-11-10 13:14:00
7:16 AM,60.8,60.8,100,30.00,1.5,SSE,3.5,-,N/A,,Clear,150,2012-11-10 13:16:00
7:18 AM,60.8,60.8,100,30.00,1.8,SSE,3.5,-,N/A,,Clear,150,2012-11-10 13:18:00
7:20 AM,60.8,60.8,100,30.00,2.0,SSE,3.5,-,N/A,,Clear,150,2012-11-10 13:20:00
7:22 AM,60.8,60.8,100,30.00,3.0,SSE,3.5,-,N/A,,Clear,150,2012-11-10 13:22:00
7:24 AM,60.8,60.8,100,30.00,5.0,SSE,3.5,-,N/A,,Clear,150,2012-11-10 13:24:00
7:55 AM,60.6,60.6,100,30.01,10.0,SSE,4.6,-,N/A,,Clear,150,2012-11-10 13:55:00
8:55 AM,68.9,64.9,87,30.03,10.0,South,11.5,-,N/A,,Clear,170,2012-11-10 14:55:00
9:55 AM,75.2,63.7,67,30.02,10.0,South,15.0,24.2,N/A,,Clear,190,2012-11-10 15:55:00
10:55 AM,76.8,62.6,61,29.99,10.0,South,18.4,26.5,N/A,,Clear,180,2012-11-10 16:55:00
11:55 AM,80.1,61.0,52,29.96,10.0,South,23.0,29.9,N/A,,Clear,180,2012-11-10 17:55:00
12:55 PM,79.5,59.9,51,29.94,10.0,South,20.7,26.5,N/A,,Scattered Clouds,180,2012-11-10 18:55:00
1:55 PM,81.9,57.7,44,29.90,10.0,South,16.1,24.2,N/A,,Partly Cloudy,190,2012-11-10 19:55:00
2:55 PM,81.3,57.0,43,29.88,10.0,South,17.3,-,N/A,,Clear,190,2012-11-10 20:55:00
3:55 PM,79.9,57.6,46,29.88,10.0,SSE,17.3,-,N/A,,Partly Cloudy,160,2012-11-10 21:55:00
4:55 PM,77.4,61.5,58,29.87,10.0,SE,16.1,-,N/A,,Clear,140,2012-11-10 22:55:00
5:55 PM,75.0,63.1,66,29.87,10.0,SE,18.4,-,N/A,,Clear,140,2012-11-10 23:55:00
6:55 PM,73.4,63.9,72,29.89,10.0,SSE,16.1,24.2,N/A,,Partly Cloudy,150,2012-11-11 00:55:00
7:55 PM,72.3,64.9,78,29.91,10.0,SSE,16.1,-,N/A,,Clear,150,2012-11-11 01:55:00
8:55 PM,72.0,65.1,79,29.91,10.0,SSE,18.4,25.3,N/A,,Clear,150,2012-11-11 02:55:00
9:55 PM,71.6,65.5,81,29.90,10.0,SSE,17.3,-,N/A,,Partly Cloudy,160,2012-11-11 03:55:00
10:55 PM,70.9,65.8,84,29.89,10.0,SSE,17.3,-,N/A,,Partly Cloudy,160,2012-11-11 04:55:00
11:55 PM,70.7,66.6,87,29.88,10.0,SSE,11.5,-,N/A,,Clear,160,2012-11-11 05:55:00